[[{"header":{"parameterUnit":"m.s-1","parameterCategory":1,"la1":30.2991,"la2":30.254,"lo1":-89.0895,"lo2":-89.0444,"dy":0.0017,"dx":0.0017,"nx":28,"ny":28,"refTime":"2024-08-01T09:00:00:Z","depth":0,"parameterNumber":2,"parameterNumberName":"U-component_of_WINDS"},"data":[0,0,0,0,0,0,0,0,0,0,0,0,0,0,0,0,0,0,0,0,0,0,0,0,0,0,0,0,0,0,0,0,0,0,0,0,0,0,0,0,0,0,0,0,0,0,0,0,0,0,0,0,0,0,0,0,0,0,2.0829,2.0829,0,2.0882,2.0883,2.0883,2.0838,2.0836,2.0834,2.0833,2.0888,2.0892,2.0895,0,0,0,0,0,0,0,0,0,0,0,0,0,2.0687,2.069,2.0829,2.0829,2.083,2.0882,2.0883,2.0884,2.0838,2.0836,2.0834,2.0832,2.0887,2.0891,2.0895,0,0,0,0,0,0,0,0,0,0,0,0,0,2.0745,2.0691,2.0829,2.0814,2.0813,2.0882,2.0883,2.0884,2.0839,2.0836,2.0833,2.0831,2.0886,2.0891,2.0896,2.0982,0,0,2.091,2.0913,0,0,0,0,0,0,0,0,2.0742,2.075,2.0815,2.0815,2.0814,2.0851,2.0853,2.0917,2.084,2.0829,2.0833,2.0829,2.0878,2.0884,2.09,2.0985,2.0987,2.0911,2.0914,2.0916,2.0917,0,0,0,0,0,0,0,2.0738,2.0748,2.085,2.0816,2.0816,2.0804,2.0809,2.0865,2.0869,2.083,2.0827,2.0834,2.0877,2.0895,2.0901,2.0988,2.0911,2.0915,2.0918,2.092,2.1144,2.1147,0,0,0,0,0,0,2.0735,2.0745,2.0848,2.0852,2.077,2.0809,2.0815,2.0842,2.0868,2.0869,2.0836,2.0831,2.0888,2.0895,2.0903,2.1004,2.0916,2.092,2.0923,2.1141,2.1145,2.1148,0,0,0,0,0,0,2.0733,2.0745,2.0846,2.0797,2.0809,2.0815,2.0845,2.0844,2.0862,2.0873,2.0873,2.0854,2.0886,2.0896,2.0962,2.1005,2.0923,2.0927,2.1138,2.1142,2.1147,2.1209,0,0,0,0,0,0,2.0729,2.0744,2.0778,2.0798,2.0812,2.0905,2.0848,2.0847,2.0871,2.0865,2.0889,2.0891,2.0885,2.0955,2.0967,2.1011,2.0931,2.1134,2.114,2.1145,2.1203,2.1215,2.1225,0,0,0,0,0,2.0724,2.0794,2.078,2.0792,2.0854,2.0908,2.0916,2.0907,2.0874,2.0907,2.0914,2.089,2.0999,2.0962,2.0975,2.1021,2.1131,2.1138,2.1145,2.1198,2.1213,2.1225,0,0,0,0,0,0,2.0779,2.0796,2.0781,2.086,2.0883,2.09,2.0942,2.0923,2.0956,2.095,2.0938,2.0944,2.1013,2.1024,2.0983,2.1105,2.106,2.1069,2.1096,2.111,2.112,2.1116,2.0935,0,0,0,0,0,2.08,2.0843,2.0856,2.0924,2.0936,2.0937,2.096,2.0951,2.0975,2.0984,2.0996,2.1019,2.1058,2.1085,2.1122,2.1204,2.1208,2.1242,2.1253,2.1262,2.127,2.1313,2.1327,2.1171,2.1171,2.117,0,0,2.0845,2.086,2.0888,2.0935,2.0952,2.0995,2.0946,2.0995,2.1026,2.0992,2.1055,2.1064,2.1089,2.1163,2.1197,2.1174,2.1314,2.1271,2.1278,2.1281,2.1321,2.1336,2.1349,2.1175,2.1174,2.1174,0,0,2.0949,2.0965,2.1022,2.1039,2.1064,2.1064,2.1078,2.1098,2.1102,2.1165,2.1139,2.1177,2.1245,2.1264,2.1282,2.139,2.1368,2.1402,2.146,2.1502,2.1514,2.1525,2.1562,2.1575,2.1411,2.1411,2.1411,0,2.1001,2.1066,2.1054,2.1104,2.1125,2.1095,2.1152,2.117,2.1206,2.1221,2.1195,2.1279,2.1294,2.1371,2.1397,2.1413,2.1428,2.1399,2.1513,2.1524,2.1534,2.1569,2.1583,2.1415,2.1414,2.1414,2.1413,0,2.1128,2.1173,2.1216,2.1251,2.1277,2.1331,2.1327,2.1354,2.1343,2.1345,2.1408,2.1425,2.1463,2.1481,2.1471,2.1556,2.1541,2.1515,2.1469,2.1553,2.1585,2.1599,2.142,2.1419,2.1418,2.1417,0,0,2.1269,2.1295,2.1311,2.1325,2.135,2.1384,2.1436,2.1472,2.1496,2.1521,2.1563,2.1621,2.1595,2.1616,2.1607,2.1644,2.1726,2.1612,2.1613,2.1632,2.1818,2.1838,2.1853,2.1712,2.1714,2.1716,2.1816,0,2.1372,2.1461,2.1452,2.1536,2.1577,2.1547,2.1592,2.1611,2.1614,2.1649,2.1652,2.1692,2.1657,2.1669,2.1703,2.1708,2.1763,2.1701,2.175,2.1752,2.1744,2.1871,2.1892,2.1985,2.1829,2.1831,2.1832,0,2.1505,2.1534,2.1622,2.1638,2.1655,2.1695,2.1727,2.1761,2.1781,2.1781,2.1803,2.1787,2.1838,2.1791,2.186,2.1818,2.1837,2.1842,2.1846,2.1849,2.1797,2.1877,2.2015,2.2029,2.1853,2.1851,2.185,0,2.1597,2.1658,2.1718,2.1732,2.1752,2.1781,2.1791,2.1809,2.1831,2.1859,2.1872,2.1906,2.1924,2.195,2.1944,2.1911,2.2014,2.1967,2.2014,2.2014,2.2037,2.2035,2.2179,2.2051,2.2051,2.205,2.205,0,2.1713,2.1768,2.176,2.1797,2.1857,2.1844,2.1904,2.191,2.1926,2.1963,2.194,2.1975,2.1965,2.1999,2.1995,2.2051,2.206,2.206,2.2058,2.2062,2.2062,2.2074,2.2067,2.2054,2.2053,2.2052,2.2052,0,2.1827,2.1823,2.1887,2.19,2.1905,2.1948,2.196,2.1994,2.1994,2.2041,2.2051,2.2052,2.2091,2.2087,2.2132,2.2128,2.2198,2.2189,2.2191,2.2188,2.2235,2.223,2.2391,2.241,2.2271,2.2272,2.2273,0,2.1901,2.1942,2.1959,2.1982,2.1993,2.2031,2.2052,2.2041,2.2065,2.209,2.2121,2.2158,2.2187,2.225,2.2255,2.2288,2.2278,2.2332,2.2283,2.2285,2.2277,2.2275,2.2278,2.2342,2.2343,2.2345,2.2346,0,2.2032,2.2027,2.2059,2.209,2.2116,2.2141,2.2162,2.2182,2.2173,2.22,2.2239,2.2262,2.2305,2.2342,2.2373,2.2382,2.2362,2.2361,2.2373,2.2377,2.2376,2.2376,2.2216,2.2357,2.2356,2.2355,2.2355,2.2354,2.2127,2.2161,2.2178,2.2214,2.2228,2.2249,2.2281,2.2284,2.2316,2.2351,2.2342,2.2386,2.2403,2.2442,2.2455,2.2489,2.2469,2.2488,2.2492,2.2496,2.2501,2.2371,2.2494,2.2494,2.2494,2.2494,2.2493,0,2.2255,2.2264,2.2297,2.2327,2.2355,2.2333,2.2355,2.2379,2.2418,2.2436,2.2464,2.2508,2.2542,2.2548,2.2581,2.2606,2.2598,2.2615,2.2613,2.2615,2.2518,2.2503,2.2621,2.2621,2.2621,2.2621,2.2621,2.2621,2.2325,2.2382,2.2379,2.2442,2.245,2.2492,2.2506,2.2524,2.2538,2.2588,2.2616,2.2619,2.2632,2.2665,2.2695,2.2695,2.2708,2.2729,2.2726,2.2635,2.2622,2.261,2.2596,2.2732,2.2732,2.282,2.2821,2.2822]},{"header":{"parameterUnit":"m.s-1","parameterCategory":1,"la1":30.2991,"la2":30.254,"lo1":-89.0895,"lo2":-89.0444,"dy":0.0017,"dx":0.0017,"nx":28,"ny":28,"refTime":"2024-08-01T09:00:00:Z","depth":0,"parameterNumber":3,"parameterNumberName":"V-component_of_WINDS"},"data":[0,0,0,0,0,0,0,0,0,0,0,0,0,0,0,0,0,0,0,0,0,0,0,0,0,0,0,0,0,0,0,0,0,0,0,0,0,0,0,0,0,0,0,0,0,0,0,0,0,0,0,0,0,0,0,0,0,0,-0.6981,-0.698,0,-0.6891,-0.689,-0.6889,-0.6845,-0.6845,-0.6845,-0.6845,-0.6752,-0.6749,-0.6747,0,0,0,0,0,0,0,0,0,0,0,0,0,-0.7115,-0.7113,-0.6981,-0.698,-0.6979,-0.6891,-0.6889,-0.6888,-0.6845,-0.6845,-0.6845,-0.6845,-0.6753,-0.675,-0.6747,0,0,0,0,0,0,0,0,0,0,0,0,0,-0.7044,-0.7112,-0.6981,-0.6946,-0.6942,-0.6891,-0.6889,-0.6888,-0.6845,-0.6845,-0.6845,-0.6845,-0.6754,-0.675,-0.6746,-0.6722,0,0,-0.6735,-0.6733,0,0,0,0,0,0,0,0,-0.7048,-0.7039,-0.6953,-0.6949,-0.6944,-0.6879,-0.6903,-0.6832,-0.6845,-0.6882,-0.6845,-0.6845,-0.6794,-0.6787,-0.677,-0.6718,-0.6714,-0.6734,-0.6732,-0.673,-0.6729,0,0,0,0,0,0,0,-0.7053,-0.7043,-0.6945,-0.6951,-0.6946,-0.6935,-0.6925,-0.6889,-0.6839,-0.6879,-0.6875,-0.6865,-0.6792,-0.6774,-0.6767,-0.6712,-0.6734,-0.6731,-0.6729,-0.6727,-0.6637,-0.6637,0,0,0,0,0,0,-0.7064,-0.7047,-0.6948,-0.6942,-0.6997,-0.6933,-0.6922,-0.69,-0.6839,-0.683,-0.6865,-0.6864,-0.678,-0.6772,-0.6764,-0.6732,-0.673,-0.6727,-0.6725,-0.6637,-0.6637,-0.6637,0,0,0,0,0,0,-0.7067,-0.7055,-0.6952,-0.6994,-0.698,-0.6931,-0.6906,-0.6898,-0.688,-0.6829,-0.682,-0.6856,-0.678,-0.6769,-0.6733,-0.6728,-0.6725,-0.6722,-0.6637,-0.6637,-0.6637,-0.6668,0,0,0,0,0,0,-0.7071,-0.7057,-0.7047,-0.6994,-0.6978,-0.6922,-0.6906,-0.6896,-0.6874,-0.6871,-0.6818,-0.6809,-0.6779,-0.6739,-0.6729,-0.6723,-0.6719,-0.6637,-0.6637,-0.6637,-0.6667,-0.6669,-0.667,0,0,0,0,0,-0.7076,-0.7059,-0.7047,-0.7035,-0.6965,-0.6922,-0.6913,-0.6878,-0.6873,-0.6863,-0.6831,-0.6811,-0.6731,-0.6736,-0.6724,-0.6717,-0.6638,-0.6637,-0.6637,-0.6666,-0.6669,-0.667,0,0,0,0,0,0,-0.7112,-0.7051,-0.7037,-0.7002,-0.6968,-0.6915,-0.6901,-0.6882,-0.6847,-0.6846,-0.6805,-0.6793,-0.6761,-0.6735,-0.6742,-0.6691,-0.6682,-0.668,-0.6709,-0.671,-0.6712,-0.6718,-0.6716,0,0,0,0,0,-0.7116,-0.7087,-0.7035,-0.701,-0.6993,-0.695,-0.693,-0.6907,-0.6869,-0.6854,-0.6819,-0.6783,-0.675,-0.6729,-0.6695,-0.6664,-0.6652,-0.6653,-0.6655,-0.6656,-0.6654,-0.6636,-0.6636,-0.6636,-0.6636,-0.6636,0,0,-0.7123,-0.7087,-0.7071,-0.7016,-0.6986,-0.6957,-0.6938,-0.6907,-0.6885,-0.685,-0.6813,-0.6787,-0.6744,-0.671,-0.6694,-0.6688,-0.6652,-0.6656,-0.6658,-0.6654,-0.6636,-0.6636,-0.6636,-0.6635,-0.6635,-0.6636,0,0,-0.7122,-0.7092,-0.7067,-0.7038,-0.6994,-0.6966,-0.6961,-0.6911,-0.6892,-0.6855,-0.6828,-0.6801,-0.6744,-0.6715,-0.6693,-0.6683,-0.6664,-0.6673,-0.6681,-0.6664,-0.6664,-0.6664,-0.6661,-0.666,-0.6672,-0.6672,-0.6672,0,-0.7137,-0.7092,-0.7057,-0.7028,-0.7005,-0.6973,-0.6948,-0.6921,-0.6869,-0.6853,-0.6848,-0.6777,-0.6746,-0.6705,-0.6703,-0.6686,-0.6679,-0.6679,-0.6667,-0.6667,-0.6666,-0.6662,-0.6661,-0.6673,-0.6673,-0.6673,-0.6673,0,-0.7112,-0.7081,-0.7067,-0.7018,-0.6993,-0.6967,-0.6928,-0.6907,-0.6887,-0.686,-0.6823,-0.6785,-0.6744,-0.6733,-0.6712,-0.6689,-0.6687,-0.6675,-0.6665,-0.6668,-0.6664,-0.6662,-0.6675,-0.6675,-0.6674,-0.6674,0,0,-0.7129,-0.7062,-0.7058,-0.7035,-0.6985,-0.6961,-0.6933,-0.6893,-0.6876,-0.6842,-0.6817,-0.6771,-0.676,-0.6735,-0.6711,-0.6697,-0.6692,-0.6686,-0.6685,-0.6689,-0.6665,-0.6674,-0.6673,-0.6679,-0.6679,-0.6678,-0.6668,0,-0.7121,-0.707,-0.7039,-0.7,-0.6972,-0.6942,-0.6918,-0.6885,-0.6859,-0.6831,-0.6802,-0.677,-0.6758,-0.6743,-0.6727,-0.6696,-0.6686,-0.6696,-0.6656,-0.6655,-0.6667,-0.667,-0.6679,-0.6672,-0.6666,-0.6666,-0.6666,0,-0.7103,-0.707,-0.703,-0.6984,-0.6971,-0.695,-0.6911,-0.6885,-0.6847,-0.6829,-0.6803,-0.6779,-0.6749,-0.6743,-0.6701,-0.6709,-0.6691,-0.6673,-0.6672,-0.6666,-0.666,-0.6664,-0.6668,-0.6667,-0.6663,-0.6663,-0.6663,0,-0.712,-0.7065,-0.7034,-0.7016,-0.6962,-0.6948,-0.6924,-0.6887,-0.6865,-0.6832,-0.6817,-0.6781,-0.6761,-0.6733,-0.6701,-0.6699,-0.6662,-0.6653,-0.6647,-0.6648,-0.6639,-0.664,-0.664,-0.6629,-0.6629,-0.6629,-0.6629,0,-0.7114,-0.709,-0.7041,-0.7022,-0.6994,-0.6959,-0.6933,-0.6907,-0.6874,-0.685,-0.6821,-0.6799,-0.6757,-0.673,-0.6704,-0.6674,-0.6665,-0.665,-0.6643,-0.6652,-0.6654,-0.6639,-0.6638,-0.6629,-0.6629,-0.6629,-0.6629,0,-0.7127,-0.7093,-0.7057,-0.7009,-0.6997,-0.6979,-0.6938,-0.6918,-0.6892,-0.6861,-0.6852,-0.681,-0.6776,-0.6741,-0.6695,-0.6678,-0.6649,-0.664,-0.6661,-0.6658,-0.6653,-0.6654,-0.6643,-0.664,-0.6631,-0.6631,-0.6632,0,-0.7124,-0.7106,-0.7056,-0.7038,-0.7016,-0.6987,-0.6965,-0.693,-0.6909,-0.6865,-0.6851,-0.6815,-0.6785,-0.6732,-0.6698,-0.6663,-0.6652,-0.6651,-0.6647,-0.6657,-0.6652,-0.6654,-0.6652,-0.6652,-0.6653,-0.6653,-0.6653,0,-0.7124,-0.7109,-0.7079,-0.7043,-0.7018,-0.6989,-0.6958,-0.6944,-0.6903,-0.6881,-0.6846,-0.6823,-0.6777,-0.6742,-0.6703,-0.6679,-0.6659,-0.6655,-0.6651,-0.666,-0.6673,-0.6666,-0.6665,-0.6655,-0.6655,-0.6655,-0.6655,-0.6654,-0.7129,-0.7111,-0.7074,-0.7042,-0.7016,-0.6988,-0.6967,-0.6939,-0.6909,-0.6869,-0.6851,-0.6816,-0.678,-0.6726,-0.6703,-0.6676,-0.667,-0.6665,-0.6663,-0.6663,-0.6665,-0.6679,-0.6668,-0.6668,-0.6668,-0.6668,-0.6668,0,-0.7127,-0.7102,-0.7073,-0.7031,-0.7006,-0.6991,-0.6956,-0.6936,-0.6907,-0.6875,-0.6846,-0.6807,-0.6773,-0.6737,-0.6701,-0.6686,-0.6676,-0.6678,-0.6678,-0.6673,-0.6672,-0.6679,-0.6687,-0.6687,-0.6687,-0.6687,-0.6687,-0.6687,-0.7123,-0.7092,-0.7073,-0.7029,-0.7004,-0.6971,-0.6952,-0.6927,-0.6901,-0.6859,-0.6831,-0.6808,-0.6775,-0.6736,-0.6705,-0.6695,-0.6683,-0.6688,-0.6675,-0.6675,-0.6673,-0.6672,-0.6678,-0.6686,-0.6686,-0.6679,-0.6679,-0.6679]}]]